Weather Roundup
Issued by NWS Springfield, MO

Home | Current Version | Previous Version | Text Only | Print | Product List | Glossary On
Versions: 1 2 3 4 5 6 7 8 9 10 11 12 13 14 15 16 17 18 19 20 21 22 23 24 25 26 27 28 29 30 31 32 33 34 35 36 37 38 39 40 41 42 43 44 45 46 47 48 49 50
000
NZUS99 KSGF 241607
HRRSGF

HOURLY WEATHER
NATIONAL WEATHER SERVICE SPRINGFIELD MO
1100 AM CDT SUN SEP 24 2017

......SGF CWA......

CITY           SKY/WX    TMP DP  RH WIND       PRES   REMARKS
SPRINGFIELD    SUNNY     83  68  60 S10       30.03S
JOPLIN         SUNNY     83  72  69 S12       30.01R
WEST PLAINS    SUNNY     84  66  54 E8        30.07F
ROLLA          MOSUNNY   85  67  54 S8        30.06F
OSAGE BEACH    SUNNY     83  70  64 SE7       30.04F
BRANSON        MOSUNNY   84  66  54 S6        30.06R

......SURROUNDING SGF CWA......

CITY           SKY/WX    TMP DP  RH WIND       PRES   REMARKS
CHANUTE        SUNNY     83  69  62 S12       29.99S
PARSONS        SUNNY     84  69  60 S9        29.99S
COFFEYVILLE    SUNNY     83  69  62 S8        29.97S
EMPORIA        MOSUNNY   81  67  62 S14       29.97R
GROVE OK       SUNNY     84  70  61 S8        30.01S
ROGERS AR      SUNNY     82  69  64 S7        30.04S
SILOAM SPRINGS SUNNY     83  68  60 S13       30.03R
HARRISON AR    SUNNY     84  67  56 SE7       30.06R
NEAR YELLVILLE SUNNY     83  69  62 CALM      30.04S

......KANSAS AND MISSOURI......

CITY           SKY/WX    TMP DP  RH WIND       PRES   REMARKS
KANSAS CTY INT MOSUNNY   82  69  64 S10       29.98S
DOWNTOWN KC    SUNNY     84  69  60 S8        29.97S
COLUMBIA       SUNNY     83  69  62 S9        30.04F
SEDALIA        SUNNY     85  70  60 S10       30.03S
ST JOSEPH      SUNNY     85  68  56 SW10      29.97S
ST LOUIS       SUNNY     86  68  54 S6        30.06F
SPIRIT OF STL  MOSUNNY   86  70  58 S6        30.04F HX  90
KIRKSVILLE     SUNNY     84  67  56 S8        30.04S
WICHITA        PTSUNNY   83  67  58 S18G26    29.94F
TOPEKA         SUNNY     83  69  62 S13       29.96R
OLATHE         SUNNY     80  70  71 S9        29.99S

......TENNESSEE......

CITY           SKY/WX    TMP DP  RH WIND       PRES   REMARKS
MEMPHIS        SUNNY     85  69  58 S5        30.03S
NASHVILLE      MOSUNNY   85  66  53 S7        30.08S

......ARKANSAS.......

CITY           SKY/WX    TMP DP  RH WIND       PRES   REMARKS
FAYETTEVILLE   SUNNY     82  70  66 S13       30.03R
FT SMITH       SUNNY     84  69  60 CALM      29.99R
LITTLE ROCK    SUNNY     84  72  67 E6        30.00F

......OKLAHOMA.......

CITY           SKY/WX    TMP DP  RH WIND       PRES   REMARKS
TULSA          MOSUNNY   83  69  62 S10       29.95S
PONCA CITY     MOSUNNY   82  67  60 S8        29.95S
MCALESTER      MOSUNNY   84  71  65 S7        29.99R
OKLAHOMA CITY  MOSUNNY   82  67  60 S18G26    29.96S

......IOWA............

CITY           SKY/WX    TMP DP  RH WIND       PRES   REMARKS
DES MOINES     MOSUNNY   84  66  54 S9        29.97S
QUAD CITIES    SUNNY     83  64  52 S8        30.05S

......ILLINOIS........

CITY           SKY/WX    TMP DP  RH WIND       PRES   REMARKS
QUINCY         SUNNY     84  66  54 S8        30.05S
CHICAGO        SUNNY     87  62  43 S10       30.09S



USA.gov is the U.S. government's official web portal to all federal, state and local government web resources and services.